Regional Weather Roundup
Issued by NWS

Home | Current Version | Previous Version | Text Only | Print | Product List | Glossary Off
Versions: 1 2 3 4 5 6 7 8 9 10 11 12 13 14 15 16 17 18 19 20 21 22 23 24 25 26 27 28 29 30 31 32 33 34 35 36 37 38 39 40 41 42 43 44 45 46 47 48 49 50

582
ASUS45 KTFX 190110
RWRMT
MONTANA REGIONAL WEATHER ROUNDUP
NATIONAL WEATHER SERVICE GREAT FALLS MT
700 PM MDT WED OCT 18 2017

NOTE: "FAIR" INDICATES FEW OR NO CLOUDS BELOW 12000 FEET WITH NO
SIGNIFICANT WEATHER AND/OR OBSTRUCTIONS TO VISIBILITY.

MTZ001>007-043-190200-
WEST OF THE DIVIDE

CITY           SKY/WX    TMP DP  RH WIND       PRES   REMARKS
KALISPELL      CLOUDY    51  44  77 S9        29.85F
MISSOULA       MOCLDY    54  42  64 NW3       29.88F
BUTTE          CLOUDY    58  29  33 W5        29.96F
MULLAN PASS    LGT RAIN  39  38  96 SW16G32   29.90F FOG     WCI  30
ANACONDA         N/A     59  28  31 SW9       29.93S
DEER LODGE       N/A     59  30  33 CALM      29.92F
EUREKA           N/A     50  43  76 MISG      29.78
HAMILTON         N/A     63  30  29 S6        29.88F
LIBBY            N/A     45  43  93 CALM      29.79F
PLAINS           N/A     55  43  64 S3        29.90F
$$

MTZ008-052>055-190200-
SOUTHWEST MONTANA

CITY           SKY/WX    TMP DP  RH WIND       PRES   REMARKS
BOZEMAN        CLOUDY    58  28  32 S8        29.92F
DILLON         CLOUDY    57  24  28 S14       29.97F
W YELLOWSTONE  CLOUDY    48  27  43 SW6       30.14S
ENNIS          CLOUDY    55  25  30 S17       30.06S
THREE FORKS      N/A     64  23  21 S16       29.91F
TWIN BRIDGES     N/A     58  24  27 E1        29.95F
$$

MTZ009-010-012-014-046-048-049-054-190200-
EAST SLOPES AND CENTRAL MONTANA

CITY           SKY/WX    TMP DP  RH WIND       PRES   REMARKS
CUT BANK       CLOUDY    53  37  54 SW24G33   29.73F
GREAT FALLS    CLOUDY    59  34  39 SW20G32   29.82F
MALMSTROM AFB  CLOUDY    60  35  39 SW13G24   29.82F
HELENA         CLOUDY    63  31  30 SE3       29.85F
BOWMANS CRNR     N/A     54  35  47 SW28      29.80F
CHOTEAU          N/A     57  37  47 SW20G28   29.79F
FAIRFIELD        N/A     56  37  49 S16       29.79F
POWER          MOCLDY    56  36  46 SW22      29.79F
RAYNESFORD       N/A     61  31  32 W15       29.84F
ULM              N/A     59  35  40 SW9       29.83F
$$

MTZ011-013-016-021-045-047-050-051-190200-
NORTH CENTRAL MONTANA

CITY           SKY/WX    TMP DP  RH WIND       PRES   REMARKS
HAVRE          CLOUDY    58  36  43 SW15      29.74F
LEWISTOWN      PTCLDY    56  25  30 W10       29.85S
N BAR RANCH      N/A     48  27  43 NE5       29.90S
CHINOOK          N/A     54  25  32 E6        29.74F
DENTON           N/A     57  31  37 W12       29.80S
GEYSER           N/A     58  29  33 W12       29.83S
GRASS RANGE      N/A     48  29  49 S6        29.82S
JUDITH GAP       N/A     58  25  27 SW12      29.90S
WINIFRED         N/A     53  29  39 SE6       29.82F
$$

MTZ017>020-022>027-061-062-190200-
NORTHEAST MONTANA

CITY           SKY/WX    TMP DP  RH WIND       PRES   REMARKS
GLASGOW        PTCLDY    47  26  44 SE8       29.83F
JORDAN           N/A     50  28  42 SE5       29.85F
SIDNEY         CLOUDY    45  26  47 SW6       29.90F
WOLF POINT     CLOUDY    46  24  42 CALM      29.86F
MALTA          CLEAR     54  28  37 S8        29.78F
PLENTYWOOD       N/A     48  19  32 CALM      29.86F
POPLAR           N/A     52  21  30 SE5       29.87S
SCOBEY           N/A     44  15  31 CALM      29.85
$$

MTZ028>42-056>058-190200-
SOUTHCENTRAL AND SOUTHEAST MONTANA

CITY           SKY/WX    TMP DP  RH WIND       PRES   REMARKS
BAKER          CLOUDY    49  33  54 SE5       29.93F
BILLINGS       PTCLDY    58  34  40 N5        29.88S
LIVINGSTON     CLOUDY    63  25  23 SW26G35   29.91S
MILES CITY     CLOUDY    55  30  38 SE6       29.88F
FORSYTH          N/A     55  28  35 CALM      29.86F
HARLOWTON      MOCLDY    62  27  25 MISG      29.88S
LAUREL           N/A     57  32  38 N5        29.89S
$$

REGIONAL REPORTS...DAKOTAS

CITY           SKY/WX    TMP DP  RH WIND       PRES   REMARKS
WILLISTON      CLOUDY    39  24  55 SW3       29.90S
MINOT          CLOUDY    47  24  40 SW6       29.90R
DICKINSON      CLOUDY    44  24  45 SW3       29.93R
BEACH            N/A     43  25  49 CALM      29.95F
CROSBY           N/A     39  19  45 W8        29.88S
TIOGA            N/A     41  21  45 SW10      29.90S
WATFORD CITY     N/A     43  25  49 S6        29.90F
BISMARCK       CLOUDY    48  24  39 W5        29.96S
GRAND FORKS    PTCLDY    52  20  28 W10       29.87R
FARGO          CLEAR     51  22  31 W14       29.94R
BUFFALO SD       N/A     51  27  39 SE12      29.89F
RAPID CITY     CLEAR     54  28  36 SE12      30.00S
$$

REGIONAL REPORTS...WYOMING/IDAHO/WASHINGTON

CITY           SKY/WX    TMP DP  RH WIND       PRES   REMARKS
GILLETTE       CLOUDY    52  26  36 S12       29.97S
SHERIDAN       CLOUDY    52  33  48 NW7       29.90F
BUFFALO WY     CLOUDY    61  11  14 S13       29.97F
CODY           CLOUDY    60  20  21 SW8       30.02R
YELLOWSTONE LA   N/A     44  24  45 VRB6      30.21S
IDAHO FALLS    CLEAR     60  28  29 S9        30.08F
SALMON         CLOUDY    58  33  39 SE3       29.94F
BOISE          MOCLDY    69  28  21 SE8       29.92F
SPOKANE        LGT RAIN  52  50  93 S15       29.77F
$$

REGIONAL REPORTS...ALBERTA

CITY           SKY/WX    TMP DP  RH WIND       PRES   REMARKS
EDMONTON       PTCLDY    41  23  48 SE12      29.48F
CALGARY        MOCLDY    48  27  43 S13       29.47F
LETHBRIDGE     PTCLDY    54  32  43 SW12      29.62F
MEDICINE HAT   MOCLDY    57  25  28 SW16      29.64F
$$

REGIONAL REPORTS...SASKATCHEWAN

CITY           SKY/WX    TMP DP  RH WIND       PRES   REMARKS
SWIFT CURRENT  CLEAR     37  18  44 SE8       29.74F WCI  31
REGINA         PTCLDY    39  14  35 W10       29.81F
SASKATOON      MOCLDY    36  14  41 SW9       29.74F WCI  29
$$




USA.gov is the U.S. government's official web portal to all federal, state and local government web resources and services.